Wind_Speed
47 46 45 45 47 48 50 50 49 47 47 47 47 46 45 45 46 47 49 49 49 51 54 56 56 54 53 54 55 53 50 48 46 46 46 47 46 45 45 46 46 45
47 46 45 46 48 49 50 51 50 49 48 48 49 48 46 46 48 50 50 49 47 46 49 52 56 57 57 58 58 58 56 54 53 51 50 50 48 47 47 49 49 48
47 47 46 46 48 50 51 52 52 51 50 50 50 49 48 48 50 52 52 51 49 47 48 49 51 54 56 59 61 61 60 58 57 57 57 56 54 52 50 51 51 51
49 48 48 48 49 51 53 54 54 54 53 53 53 52 51 50 53 56 56 54 52 51 52 52 52 52 53 55 58 61 62 61 60 60 61 61 60 57 55 54 54 53
52 51 50 50 51 53 56 57 58 58 58 58 57 56 56 55 57 59 60 59 58 57 58 58 57 55 54 54 56 58 60 61 61 62 64 65 64 62 59 58 58 57
57 56 55 55 55 56 58 60 60 61 62 62 61 61 61 62 64 64 63 62 62 61 62 62 61 59 58 58 58 58 58 59 60 62 65 67 67 66 64 62 62 61
62 61 61 61 61 60 61 62 63 63 64 65 65 65 66 67 69 68 66 65 65 65 65 65 65 64 63 63 63 62 61 60 60 61 64 66 67 68 67 66 65 65
65 65 65 65 65 65 64 65 66 66 66 66 67 68 69 71 73 73 72 71 70 69 69 70 69 68 68 68 67 67 66 65 65 64 64 64 65 67 68 69 69 69
67 66 66 67 68 69 69 69 69 70 70 70 70 70 71 73 76 77 77 77 76 75 75 75 75 74 73 73 73 72 71 71 70 69 67 66 65 66 67 69 70 72
68 67 67 69 71 72 73 73 74 74 75 75 75 75 76 78 79 81 82 81 81 80 80 80 80 80 79 79 78 77 76 76 76 75 73 71 70 68 68 69 70 72
72 71 71 73 75 76 77 78 78 79 79 80 80 80 81 82 84 85 86 85 85 85 85 85 85 85 85 84 84 84 83 82 81 80 79 77 76 74 73 72 72 73
77 77 76 77 79 81 82 83 83 84 84 84 83 83 83 84 86 87 87 87 87 88 88 88 89 90 90 90 90 89 89 89 88 87 85 84 83 82 81 80 79 77
80 80 80 81 82 84 84 85 85 85 85 84 84 83 82 83 84 85 85 85 86 87 87 88 89 90 90 90 90 89 90 90 91 91 91 90 89 89 89 89 87 85
84 84 84 84 84 83 83 83 83 83 83 82 82 81 79 79 80 81 81 81 82 83 83 84 84 85 86 86 86 86 86 87 88 89 89 90 91 92 93 93 92 89
86 85 84 83 82 81 80 79 79 79 79 78 78 78 77 75 75 76 77 77 78 78 79 79 80 80 81 81 81 82 83 83 84 84 85 86 88 89 91 92 91 89
84 84 82 80 79 78 77 77 76 76 76 75 75 75 75 74 74 74 75 75 75 76 76 77 77 77 78 78 79 79 79 80 80 80 81 82 84 85 86 88 88 88
82 81 79 78 77 76 76 75 74 74 74 74 74 74 73 73 72 72 72 72 72 72 72 72 73 73 74 74 75 76 77 77 78 78 79 79 80 81 82 83 84 85
79 78 77 77 75 75 74 73 73 72 72 71 70 69 68 67 66 65 65 65 65 65 65 65 66 66 67 68 68 69 71 72 74 75 76 77 77 78 78 79 80 82
77 76 76 74 73 72 72 71 70 69 67 65 64 62 61 59 58 58 57 57 57 57 58 58 59 59 60 61 61 62 63 65 66 68 70 72 73 74 76 77 78 79
75 74 72 72 71 70 69 67 66 63 61 60 58 56 55 54 53 52 51 51 51 51 52 52 53 54 54 55 56 56 57 58 60 61 62 64 66 68 70 73 75 77
71 70 70 69 68 66 64 62 61 59 57 56 54 53 51 50 49 48 47 47 47 47 47 47 48 49 49 50 51 51 52 53 54 55 56 57 59 61 63 66 68 72
68 68 67 66 64 62 60 58 56 55 53 52 51 49 48 47 46 45 44 44 43 43 43 43 43 44 44 45 45 46 46 47 48 50 51 51 53 55 57 59 61 64
66 66 64 62 60 58 56 54 52 51 49 48 47 45 44 43 43 42 41 41 40 40 40 39 39 39 39 39 40 40 41 42 43 44 45 46 47 49 52 54 56 58
64 63 60 58 56 54 52 50 48 47 46 44 43 42 41 40 40 39 38 37 37 37 36 36 36 35 35 35 35 36 36 37 38 39 40 41 42 44 46 49 51 53
61 59 56 54 52 50 49 47 46 45 43 42 40 39 38 38 37 36 35 35 34 34 33 33 32 32 32 31 31 32 33 34 35 35 36 38 38 39 41 44 46 48
57 55 53 51 49 48 47 45 44 43 42 40 39 38 37 36 35 34 33 32 32 32 31 30 29 29 29 29 29 29 30 32 33 33 34 35 35 36 37 39 41 43
Wind_Direction
307 304 301 298 296 295 294 294 293 292 293 294 294 293 293 293 290 288 285 282 278 274 270 269 267 266 264 263 263 261 260 261 261 260 260 259 257 255 252 250 249 248
310 306 303 299 297 295 295 295 294 294 294 294 294 294 294 293 290 287 286 285 284 282 278 274 271 268 266 264 264 262 260 260 261 261 260 260 259 256 254 252 250 249
311 308 305 301 299 297 297 297 296 297 297 296 296 295 295 293 290 288 287 286 286 285 283 281 278 274 270 267 265 264 262 260 260 261 261 260 258 256 255 253 251 250
309 308 306 303 300 299 298 298 298 298 298 297 297 297 296 293 289 288 289 289 288 286 284 283 282 279 275 272 269 267 265 262 261 261 260 260 258 256 255 254 252 251
306 305 303 301 299 298 298 298 298 298 297 297 297 296 295 292 288 288 289 290 289 286 284 283 283 281 278 276 273 271 268 265 263 261 260 259 258 257 256 254 253 252
303 302 301 299 297 296 296 296 297 296 296 295 295 294 292 290 288 287 288 287 286 284 283 282 281 280 278 277 276 274 272 269 266 264 261 260 259 257 256 255 254 253
302 301 300 299 297 296 295 295 296 296 295 294 293 293 291 289 288 287 287 286 284 283 282 281 280 279 277 277 276 275 273 270 267 265 263 261 260 259 257 255 254 253
301 301 300 299 298 297 296 295 294 293 292 292 291 290 289 287 286 286 285 284 283 282 281 279 278 277 277 276 276 275 273 270 267 265 263 262 261 260 258 256 254 254
301 300 300 299 298 297 296 294 293 292 291 290 289 288 286 285 284 284 283 282 281 280 279 278 277 276 275 274 274 274 273 271 268 266 264 262 261 260 259 257 255 254
301 300 300 299 298 297 296 294 293 291 290 289 288 287 285 284 282 282 282 281 279 278 276 275 275 274 273 273 272 271 270 269 268 267 265 263 262 261 260 259 257 255
301 301 300 299 298 297 296 295 293 292 290 289 288 286 284 283 281 281 281 280 279 277 275 273 273 272 272 271 270 269 268 267 266 265 264 263 262 261 261 260 259 257
302 301 301 300 299 298 297 296 294 293 291 290 289 287 285 283 282 281 280 280 279 277 276 274 273 272 271 271 270 268 266 265 264 263 262 261 260 259 260 261 261 260
302 302 302 300 299 298 297 296 295 293 292 290 289 287 286 284 283 282 281 280 279 277 276 275 274 273 272 271 270 268 266 265 263 262 262 261 259 258 258 259 260 261
302 302 301 300 299 298 296 295 294 293 292 291 290 288 287 285 284 283 282 281 279 278 277 275 274 273 272 271 270 268 267 265 264 262 261 260 259 258 257 257 258 258
303 302 301 300 299 298 298 297 296 295 294 293 292 291 290 288 287 285 284 283 281 279 278 276 275 274 272 271 270 268 267 266 264 263 261 260 258 257 257 257 256 256
303 303 303 302 302 301 300 300 299 298 297 296 295 294 293 291 290 288 286 284 282 281 279 277 276 274 272 271 269 268 267 265 264 263 261 260 258 257 256 256 255 254
305 305 305 305 305 304 303 302 301 300 299 298 297 295 294 293 291 289 287 286 284 282 280 278 277 275 273 271 269 268 266 265 264 262 261 259 258 257 256 255 254 253
307 307 307 307 306 305 304 303 302 301 300 299 298 297 295 294 293 291 290 288 286 284 282 281 279 277 275 273 271 269 267 265 264 262 261 259 258 256 255 254 254 252
309 309 308 307 307 306 305 304 303 303 302 301 300 299 298 297 295 294 292 290 288 287 285 283 281 279 277 275 273 271 269 267 265 263 261 259 258 256 255 254 253 252
309 309 308 307 307 307 307 306 306 306 305 305 304 303 302 301 299 298 296 294 292 290 287 285 283 280 278 276 274 272 270 268 266 264 262 260 259 257 255 253 252 251
310 309 309 309 310 310 310 310 309 309 308 308 307 307 306 304 303 302 300 298 296 294 291 288 285 283 280 278 275 273 271 269 267 265 263 261 259 258 256 254 252 251
311 311 312 312 312 312 312 311 311 310 310 309 309 308 307 307 306 306 304 303 300 298 295 292 289 286 283 280 278 275 272 270 268 266 263 261 259 258 256 255 253 251
314 314 314 314 313 313 312 312 311 311 310 309 309 308 308 309 309 309 308 307 306 303 301 297 294 290 287 283 280 278 275 272 269 266 264 261 259 257 256 255 253 252
316 316 316 315 314 314 313 313 313 312 312 311 311 310 310 310 310 311 311 311 311 310 307 304 301 297 293 288 284 281 278 275 271 268 265 262 259 257 255 254 253 252
318 317 317 316 316 315 315 315 315 315 315 315 314 313 312 311 311 312 313 315 316 315 314 311 308 304 299 294 290 285 281 277 274 271 268 265 261 258 255 254 252 251
319 319 318 318 318 318 318 318 318 318 318 318 318 317 316 315 313 313 314 317 319 319 319 317 315 312 308 302 297 291 285 281 277 274 272 269 267 263 259 257 255 252
Height
10835 10834 10833 10830 10827 10825 10824 10823 10824 10824 10822 10820 10819 10820 10821 10820 10818 10814 10812 10813 10816 10818 10818 10818 10819 10821 10822 10820 10819 10822 10825 10827 10828 10828 10827 10827 10830 10832 10832 10832 10832 10834
10830 10829 10828 10826 10822 10820 10818 10817 10817 10817 10816 10813 10812 10813 10814 10813 10809 10806 10805 10806 10809 10811 10811 10810 10810 10812 10813 10812 10811 10813 10817 10820 10821 10821 10821 10820 10822 10824 10824 10824 10826 10827
10826 10825 10824 10821 10818 10815 10813 10811 10810 10809 10809 10807 10805 10806 10807 10806 10801 10797 10798 10800 10803 10804 10803 10801 10801 10802 10803 10803 10802 10803 10806 10811 10813 10813 10812 10811 10813 10816 10817 10817 10819 10820
10821 10820 10819 10817 10813 10810 10808 10806 10804 10803 10801 10800 10799 10799 10799 10798 10793 10788 10790 10794 10796 10796 10794 10792 10792 10794 10794 10793 10793 10793 10795 10801 10804 10803 10801 10801 10803 10807 10810 10810 10811 10813
10816 10815 10815 10813 10810 10805 10802 10801 10799 10797 10794 10793 10792 10791 10791 10789 10784 10781 10782 10785 10787 10787 10784 10782 10783 10784 10785 10784 10783 10784 10786 10790 10793 10792 10790 10790 10793 10797 10801 10802 10803 10804
10811 10810 10808 10807 10805 10802 10797 10795 10794 10792 10788 10786 10786 10785 10782 10778 10774 10774 10776 10777 10777 10776 10775 10773 10773 10774 10775 10775 10774 10775 10776 10779 10780 10779 10779 10780 10783 10786 10790 10793 10794 10795
10806 10804 10801 10798 10797 10795 10792 10788 10786 10785 10782 10780 10779 10778 10774 10768 10765 10766 10768 10767 10766 10767 10765 10764 10763 10764 10765 10765 10765 10766 10767 10768 10768 10767 10767 10770 10772 10775 10779 10782 10784 10784
10800 10798 10794 10790 10787 10785 10784 10780 10777 10776 10775 10773 10772 10770 10766 10760 10755 10755 10757 10757 10757 10757 10756 10753 10753 10754 10754 10754 10754 10755 10756 10757 10757 10756 10757 10760 10762 10763 10766 10770 10772 10772
10793 10792 10789 10783 10778 10776 10774 10772 10768 10766 10765 10764 10764 10761 10757 10752 10746 10743 10744 10745 10746 10747 10745 10742 10741 10743 10743 10743 10743 10744 10744 10744 10744 10745 10747 10750 10751 10752 10754 10757 10759 10761
10786 10785 10782 10776 10770 10766 10763 10761 10758 10755 10753 10753 10753 10751 10746 10742 10736 10732 10731 10733 10734 10734 10733 10730 10729 10730 10731 10731 10732 10732 10732 10731 10731 10732 10736 10737 10738 10740 10742 10744 10747 10749
10775 10775 10773 10767 10761 10756 10752 10749 10746 10743 10740 10739 10739 10738 10734 10728 10724 10720 10718 10719 10719 10719 10718 10716 10715 10715 10716 10717 10718 10718 10718 10718 10718 10719 10722 10724 10725 10727 10729 10731 10733 10737
10764 10763 10762 10757 10750 10745 10740 10736 10733 10729 10726 10724 10723 10722 10719 10714 10709 10706 10704 10704 10702 10701 10700 10700 10699 10699 10699 10700 10701 10701 10702 10703 10703 10705 10708 10711 10712 10714 10715 10716 10719 10723
10756 10753 10751 10746 10740 10734 10729 10723 10719 10715 10711 10709 10707 10706 10705 10700 10693 10689 10689 10689 10686 10683 10682 10682 10682 10681 10681 10682 10682 10683 10683 10685 10686 10689 10692 10695 10696 10698 10700 10701 10704 10709
10746 10742 10739 10734 10729 10723 10718 10712 10706 10701 10697 10693 10690 10688 10688 10686 10679 10674 10672 10672 10669 10667 10666 10665 10665 10664 10664 10664 10664 10664 10665 10666 10668 10671 10674 10677 10679 10681 10683 10685 10689 10695
10734 10729 10725 10721 10715 10710 10704 10699 10694 10688 10683 10679 10674 10671 10670 10669 10665 10660 10657 10655 10653 10651 10649 10648 10648 10647 10647 10647 10647 10647 10648 10649 10651 10653 10656 10658 10660 10663 10665 10668 10672 10678
10721 10716 10711 10707 10702 10697 10691 10686 10681 10676 10671 10666 10661 10657 10654 10652 10650 10646 10642 10639 10637 10635 10634 10632 10631 10630 10630 10630 10630 10630 10631 10633 10634 10636 10639 10641 10643 10645 10648 10651 10655 10661
10709 10703 10698 10694 10689 10684 10678 10673 10669 10664 10659 10654 10649 10645 10641 10638 10635 10631 10628 10625 10622 10620 10619 10617 10615 10614 10614 10614 10615 10615 10615 10616 10618 10620 10622 10625 10627 10630 10632 10635 10639 10643
10698 10692 10687 10682 10677 10672 10667 10662 10658 10653 10647 10642 10638 10633 10629 10625 10622 10618 10615 10611 10609 10607 10605 10603 10601 10600 10599 10599 10600 10600 10600 10601 10602 10604 10606 10609 10612 10615 10617 10620 10623 10626
10689 10683 10677 10672 10668 10662 10657 10651 10647 10642 10636 10631 10627 10623 10618 10615 10611 10607 10604 10600 10598 10595 10593 10591 10590 10588 10587 10586 10586 10586 10586 10586 10588 10589 10591 10593 10596 10600 10602 10605 10607 10610
10680 10674 10668 10663 10658 10653 10647 10641 10636 10631 10626 10621 10617 10613 10609 10605 10601 10598 10595 10591 10588 10586 10583 10581 10579 10578 10576 10575 10575 10574 10574 10574 10575 10576 10579 10580 10582 10585 10587 10590 10593 10595
10672 10666 10660 10654 10648 10643 10638 10632 10627 10622 10618 10613 10609 10605 10601 10597 10593 10590 10587 10583 10580 10577 10574 10572 10570 10568 10567 10565 10565 10564 10564 10564 10564 10565 10567 10569 10570 10571 10573 10576 10579 10582
10664 10657 10652 10646 10640 10635 10630 10625 10620 10616 10611 10607 10603 10599 10595 10591 10587 10584 10580 10577 10573 10570 10567 10564 10562 10560 10558 10557 10556 10555 10555 10555 10554 10555 10556 10559 10560 10561 10561 10564 10566 10569
10656 10649 10644 10638 10633 10628 10624 10620 10615 10611 10606 10602 10598 10594 10590 10586 10582 10578 10575 10571 10567 10564 10560 10557 10555 10553 10551 10549 10548 10547 10546 10546 10546 10546 10546 10548 10550 10551 10551 10553 10555 10557
10648 10643 10637 10632 10627 10622 10618 10614 10610 10606 10601 10598 10593 10589 10585 10581 10578 10574 10570 10566 10562 10558 10555 10552 10549 10547 10545 10543 10541 10539 10538 10538 10537 10537 10537 10539 10541 10542 10542 10543 10545 10547
10642 10636 10631 10626 10621 10617 10612 10609 10605 10600 10596 10592 10589 10585 10581 10577 10573 10570 10566 10562 10558 10555 10551 10547 10544 10542 10539 10537 10535 10533 10532 10530 10530 10530 10530 10530 10532 10534 10534 10534 10536 10537
10636 10631 10626 10621 10616 10611 10607 10603 10599 10595 10591 10587 10583 10580 10576 10572 10569 10565 10562 10559 10555 10551 10548 10544 10541 10538 10535 10533 10531 10529 10527 10525 10524 10524 10524 10524 10524 10525 10526 10527 10528 10529